Regional Weather Roundup
Issued by NWS

Home | Current Version | Previous Version | Text Only | Print | Product List | Glossary Off
Versions: 1 2 3 4 5 6 7 8 9 10 11 12 13 14 15 16 17 18 19 20 21 22 23 24 25 26 27

000
ASUS45 KBOU 252107
RWRCO

WEATHER ROUNDUP FOR COLORADO
NATIONAL WEATHER SERVICE DENVER/BOULDER CO
300 PM MDT SAT OCT 25 2014

NOTE: "FAIR" INDICATES FEW OR NO CLOUDS BELOW 12000 FEET WITH NO
SIGNIFICANT WEATHER AND/OR OBSTRUCTIONS TO VISIBILITY.

COZ001>005-013-030-031-252200-
...NORTHWEST COLORADO...

CITY           SKY/WX    TMP DP  RH WIND       PRES   REMARKS
CRAIG          SUNNY     75  23  14 SW17G24   30.17F
HAYDEN         SUNNY     73  19  13 W16       30.17F
MEEKER         SUNNY     74  24  15 SW16G23   30.18F
MOUNT WERNER   NOT AVBL
STEAMBOAT SPGS SUNNY     70  24  17 SW3       30.20F
WALDEN         SUNNY     66  14  13 SW15      30.28F
$$

COZ006>008-011-252200-
...WEST CENTRAL VALLEYS...

CITY           SKY/WX    TMP DP  RH WIND       PRES   REMARKS
GRAND JUNCTION SUNNY     76  28  17 W3        30.12F
MONTROSE       SUNNY     76  30  18 N9        30.19F
EAGLE          SUNNY     66  25  20 CALM      30.24F
RIFLE          SUNNY     72  28  19 E3        30.16F
DELTA          SUNNY     81  27  14 CALM      30.15F
NUCLA          SUNNY     77  30  18 SW13G24   30.24F
$$

COZ017>023-064>068-252200-
...SOUTHWEST COLORADO...

CITY           SKY/WX    TMP DP  RH WIND       PRES   REMARKS
DURANGO        SUNNY     71  30  21 W8        30.29F
CORTEZ         SUNNY     76  32  20 SW13      30.25F
PAGOSA SPRINGS SUNNY     70  21  15 SW12      30.35F
TELLURIDE      PTSUNNY   66  24  21 SW10      30.40F
WOLF CREEK PAS SUNNY     50  23  34 SW17G24     N/A
$$

COZ009-010-012-014-032>034-037-058>063-252200-
...CENTRAL COLORADO...

CITY           SKY/WX    TMP DP  RH WIND       PRES   REMARKS
ASPEN          SUNNY     70  11  10 VRB5      30.27F
BUENA VISTA    SUNNY     72  16  12 SE10G16   30.27F
COPPER MTN     SUNNY     59  -4   7 S12G22    30.55F
BERTHOUD PASS  FAIR      45  41  87 NW5G22    30.59S
COTTONWOOD PAS SUNNY     68 -15   3 SW6G16    30.41F
GUNNISON       SUNNY     64  21  19 CALM      30.32F
KREMMLING      SUNNY     72   7   8 W5          N/A
LEADVILLE      SUNNY     61   5  10 SW16G22   30.39F
MONARCH PASS   SUNNY     52  14  22 W20G28    30.66F
SALIDA         SUNNY     75  17  11 S9        30.32F
SUNLIGHT       SUNNY     57  21  24 W6        30.50F
WILKERSON PASS NOT AVBL
$$

COZ069>075-252200-
...SAN LUIS VALLEY/SANGRE DE CRISTO MOUNTAINS...

CITY           SKY/WX    TMP DP  RH WIND       PRES   REMARKS
ALAMOSA        SUNNY     71  21  15 VRB3      30.29F
LA VETA PASS   SUNNY     63  18  17 S12G20    30.46F
SAGUACHE       SUNNY     68  23  18 SE5       30.32F
$$

COZ035-036-038>040-252200-
...NORTHERN COLORADO FRONT RANGE...

CITY           SKY/WX    TMP DP  RH WIND       PRES   REMARKS
DENVER INTL AP SUNNY     79  18  10 E12       30.11F
DMNS CITY PARK   N/A     80  21  11 E3G13     30.10F
AURORA         SUNNY     78  19  11 SE14      30.13F
FRONT RANGE AP SUNNY     81  25  12 E16G24    30.14
ERIE MUNI ARPT SUNNY     81  17   9 SE9       30.09F
BOULDER MUN AP SUNNY     79  25  13 SE6       30.10F
CENTENNIAL     MOSUNNY   76  20  12 SE13      30.14F
BROOMFIELD     SUNNY     81  21  11 E9        30.13F
FORT COLLINS   SUNNY     81  27  13 S12       30.09F
LONGMONT       SUNNY     82  21  10 S7        30.11F
$$

COZ041-046-047-076>085-087-088-252200-
...PIKES PEAK/PALMER DIVIDE AND SOUTHERN FOOTHILLS...

CITY           SKY/WX    TMP DP  RH WIND       PRES   REMARKS
COLO. SPRINGS  MOSUNNY   77  16  10 SE10G20   30.18F
A. F. ACADEMY  SUNNY     75  12   9 SE9G17    30.19F
ELLICOTT       NOT AVBL
FALCON         SUNNY     76  17  11 S10G17    30.23F
FORT CARSON    SUNNY     78  19  11 SE8       30.16F HAZE
LIMON          SUNNY     79  18  10 E7        30.12F
MONUMENT HILL  SUNNY     72  19  14 SE12      30.22F
TRINIDAD       SUNNY     81  25  12 E12       30.14F
$$

COZ042>045-048>051-090-091-252200-
...NORTHEAST COLORADO...

CITY           SKY/WX    TMP DP  RH WIND       PRES   REMARKS
GREELEY ARPT   SUNNY     81  25  12 SE13      30.09F
AKRON          SUNNY     80  24  12 E7        30.08F
BURLINGTON     SUNNY     81  33  17 VRB3      30.07F
WRAY           SUNNY     84  29  14 E7        30.04F
STERLING       SUNNY     84  36  17 E3        30.03F
HOLYOKE        SUNNY     81  32  17 E5        30.05F
FORT MORGAN    SUNNY     81  25  12 E7        30.07F
$$

COZ086-089-092>099-252200-
...SOUTHEAST COLORADO...

CITY           SKY/WX    TMP DP  RH WIND       PRES   REMARKS
PUEBLO         SUNNY     82  21  10 CALM      30.08F
LA JUNTA       SUNNY     84  32  15 SE7       30.06F
LAMAR          SUNNY     86  34  15 VRB6      30.02F
SPRINGFIELD      N/A     85  33  15 S10       30.07F
$$



USA.gov is the U.S. government's official web portal to all federal, state and local government web resources and services.